This demonstration page uses our WeatherBlox Daily Observations layout. Learn more.

Left ArrowRight Arrow

Hourly Observations for March 1, 2021

Temp ( °F °C ) Dew Point ( °F °C ) Humidity (%) Winds ( mph kmh ) Pressure ( in mb ) Visibility ( mi km ) Precip ( " mm )
12:51 am 00:51 Clear 39 3.9 -4 -20 16 16 NNW 6 9 30.15 1021 10 16.0934 0 0
1:51 am 01:51 Clear 38 3.3 -4 -20 16 16 NNW 6 9 30.15 1021 10 16.0934 0 0
2:51 am 02:51 Clear 38 3.3 -3 -19.4 17 17 NNE 7 11 30.16 1021 10 16.0934 0 0
3:51 am 03:51 Clear 36 2.2 -3 -19.4 19 19 SE 6 9 30.17 1022 10 16.0934 0 0
4:51 am 04:51 Clear 30 -1.1 -2 -18.9 25 25 E 6 9 30.19 1022 10 16.0934 0 0
5:51 am 05:51 Clear 33 0.6 1 -17.2 25 25 ENE 7 11 30.22 1023 10 16.0934 0 0
6:51 am 06:51 Sunny 33 0.6 -1 -18.3 23 23 SE 3 6 30.25 1024 10 16.0934 0 0
7:51 am 07:51 Sunny 39 3.9 1 -17.2 20 20 SE 7 11 30.28 1025 10 16.0934 0 0
8:51 am 08:51 Sunny 46 7.8 3 -16.1 17 17 SSE 6 9 30.29 1026 10 16.0934 0 0
9:51 am 09:51 Sunny 53 11.7 8 -13.3 16 16 E 9 15 30.28 1025 10 16.0934 0 0
10:51 am 10:51 Sunny 56 13.3 16 -8.9 21 21 ESE 17 28 30.27 1025 10 16.0934 0 0
11:51 am 11:51 Sunny 58 14.4 17 -8.3 20 20 SSE 15 24 30.26 1025 10 16.0934 0 0
12:51 pm 12:51 Sunny 60 15.6 18 -7.8 19 19 SSE 13 20 30.23 1024 10 16.0934 0 0
1:51 pm 13:51 Sunny 62 16.7 17 -8.3 17 17 ESE 14 22 30.19 1022 10 16.0934 0 0
2:51 pm 14:51 Sunny 63 17.2 16 -8.9 16 16 SE 13 20 30.17 1022 10 16.0934 0 0
3:51 pm 15:51 undefined 64 17.8 15 -9.4 15 15 SE 16 26 30.16 1021 10 16.0934 0 0
4:51 pm 16:51 Sunny 63 17.2 14 -10 15 15 SSE 15 24 30.16 1021 10 16.0934 0 0
5:51 pm 17:51 Sunny 61 16.1 15 -9.4 17 17 SSE 13 20 30.16 1021 10 16.0934 0 0
6:51 pm 18:51 Clear 57 13.9 16 -8.9 20 20 SE 10 17 30.18 1022 10 16.0934 0 0
7:51 pm 19:51 Clear 54 12.2 15 -9.4 21 21 ESE 10 17 30.19 1022 10 16.0934 0 0
8:51 pm 20:51 Clear 52 11.1 16 -8.9 24 24 E 12 19 30.19 1022 10 16.0934 0 0
9:51 pm 21:51 Clear 50 10 16 -8.9 26 26 E 12 19 30.19 1022 10 16.0934 0 0
10:51 pm 22:51 Clear 48 8.9 17 -8.3 29 29 SSE 7 11 30.2 1023 10 16.0934 0 0
11:51 pm 23:51 Clear 46 7.8 17 -8.3 31 31 SSE 9 15 30.19 1023 10 16.0934 0 0

Powered by AerisWeather